Home > Weather > Arviat > Past weeks

Flag for Canada Weather for the Past 2 Weeks in Arviat, Nunavut, Canada

Now
19 °F

Sunny.


Feels Like: 5 °F
Forecast: 11 / 21 °F
Wind: 16 mph from North

Location: Arviat Airport

Current Time: May 3, 2016 at 12:27:28 PM

Latest Report: May 3, 2016 at 12:00 PM


Visibility: 15 mi

Pressure: 30.19 "Hg

Humidity: 79%

Dew Point: 14 °F

Location of ArviatLocation

Historic Weather in Arviat — Graph

°F

Arviat Temperature Yesterday

Maximum temperature yesterday: 37 °F (at 11:00 AM)
Minimum temperature yesterday: 28 °F (at 11:52 PM)
Average temperature yesterday: 33 °F

High & Low Weather Summary for the Past Weeks

 TemperatureHumidityPressure
High39 °F (Apr 19, 5:00 PM)100% (Apr 18, 7:00 PM)30.56 "Hg (Apr 18, 7:00 PM)
Low-8 °F (Apr 22, 5:00 AM)68% (Apr 27, 2:00 PM)29.27 "Hg (Apr 20, 2:00 AM)
Average15 °F87%30.22 "Hg
* Reported Apr 18 11:00 AM — May 3 11:00 AM, Arviat, Weather by CustomWeather, © 2016

Note: Actual official high and low records may vary slightly from our data, if they occured in-between our weather recording intervals... More about our weather records

Advertising

Arviat Weather History for the Previous 24 Hours

Scroll right to see more
 ConditionsComfort  
Time TempWeatherWind HumidityBarometerVisibility
11:00 AM
Tue, May 3
18 °FSunny.16 mph86%30.19 "Hg15 mi
10:00 AM16 °FSunny.17 mph86%30.18 "Hg15 mi
9:00 AM16 °FSunny.20 mph79%30.16 "Hg15 mi
8:00 AM14 °FSunny.18 mph79%30.14 "Hg15 mi
7:00 AM12 °FSunny.20 mph85%30.12 "Hg15 mi
6:00 AM12 °FSunny.21 mph85%30.10 "Hg9 mi
5:00 AM14 °FClear.20 mph85%30.07 "Hg9 mi
4:00 AM16 °FClear.26 mph86%30.03 "Hg9 mi
3:00 AM21 °FPassing clouds.22 mph86%30.01 "Hg9 mi
2:00 AM27 °FOvercast.25 mph86%29.97 "Hg9 mi
1:00 AM28 °FOvercast.26 mph86%29.94 "Hg9 mi
12:00 AM28 °FOvercast.29 mph93%29.92 "Hg9 mi
11:52 PM
Mon, May 2
28 °FOvercast.30 mph93%29.91 "Hg9 mi
11:00 PM30 °FLight snow. Overcast.23 mph93%29.88 "Hg9 mi
10:49 PM30 °FLight snow. Overcast.28 mph93%29.88 "Hg9 mi
10:00 PM32 °FOvercast.26 mph93%29.86 "Hg9 mi
9:00 PM32 °FOvercast.31 mph93%29.83 "Hg9 mi
8:00 PM34 °FOvercast.29 mph93%29.79 "Hg9 mi
7:00 PM34 °FOvercast.23 mph93%29.77 "Hg9 mi
6:00 PM34 °FMostly cloudy.21 mph93%29.72 "Hg9 mi
5:00 PM36 °FPartly sunny.16 mph93%29.68 "Hg15 mi
4:00 PM36 °FPartly sunny.14 mph93%29.65 "Hg15 mi
3:00 PM36 °FPartly sunny.14 mph93%29.65 "Hg15 mi
2:00 PM36 °FPartly sunny.16 mph93%29.64 "Hg15 mi
1:00 PM37 °FScattered clouds.10 mph87%29.63 "Hg15 mi
12:00 PM37 °FScattered clouds.8 mph87%29.63 "Hg15 mi
Weather by CustomWeather, © 2016

See weather overviewHow to use our weather pages